This demonstration page uses our WeatherBlox Daily Observations layout. Learn more.

Left ArrowRight Arrow

Hourly Observations for April 8, 2017

Temp ( °F °C ) Dew Point ( °F °C ) Humidity (%) Winds ( mph kmh ) Pressure ( in mb ) Visibility ( mi km ) Precip ( " mm )
12:15 am 00:15 Clear 55 13 43 6 63 63 S 17 28 29.74 1007 10 16 0.00 0.00
12:35 am 00:35 Clear 55 13 43 6 63 63 S 16 26 29.74 1007 10 16 0.00 0.00
12:55 am 00:55 Clear 55 13 43 6 63 63 S 18 30 29.68 1005 10 16 0.00 0.00
1:15 am 01:15 Clear 55 13 43 6 63 63 S 16 26 29.68 1005 10 16 0.00 0.00
1:35 am 01:35 Clear 54 12 43 6 67 67 S 14 22 29.71 1006 10 16 0.00 0.00
1:55 am 01:55 Clear 54 12 43 6 67 67 S 12 19 29.71 1006 10 16 0.00 0.00
2:15 am 02:15 Clear 54 12 43 6 67 67 S 10 17 29.71 1006 10 16 0.00 0.00
2:35 am 02:35 Clear 52 11 43 6 72 72 S 9 15 29.68 1005 10 16 0.00 0.00
2:55 am 02:55 Clear 52 11 43 6 72 72 S 13 20 29.68 1005 10 16 0.00 0.00
3:15 am 03:15 Clear 52 11 43 6 72 72 S 10 17 29.68 1005 10 16 0.00 0.00
3:35 am 03:35 Clear 52 11 43 6 72 72 S 10 17 29.65 1004 10 16 0.00 0.00
3:55 am 03:55 Clear 52 11 43 6 72 72 S 7 11 29.65 1004 10 16 0.00 0.00
4:15 am 04:15 Clear 50 10 41 5 71 71 S 6 9 29.65 1004 10 16 0.00 0.00
4:35 am 04:35 Clear 48 9 43 6 82 82 S 9 15 29.65 1004 10 16 0.00 0.00
4:55 am 04:55 Clear 48 9 41 5 76 76 S 12 19 29.65 1004 10 16 0.00 0.00
5:15 am 05:15 Clear 48 9 43 6 82 82 SSW 12 19 29.65 1004 10 16 0.00 0.00
5:35 am 05:35 Clear 50 10 43 6 76 76 SSW 9 15 29.65 1004 10 16 0.00 0.00
5:55 am 05:55 Clear 50 10 43 6 76 76 SSW 10 17 29.65 1004 10 16 0.00 0.00
6:15 am 06:15 Clear 46 8 39 4 76 76 SSW 10 17 29.68 1005 10 16 0.00 0.00
6:35 am 06:35 Clear 48 9 41 5 76 76 SSW 9 15 29.65 1004 10 16 0.00 0.00
6:55 am 06:55 Clear 48 9 41 5 76 76 W 5 7 29.65 1004 10 16 0.00 0.00
7:15 am 07:15 Sunny 48 9 41 5 76 76 SW 7 11 29.65 1004 10 16 0.00 0.00
7:35 am 07:35 Sunny 48 9 41 5 76 76 SW 8 13 29.65 1004 10 16 0.00 0.00
7:55 am 07:55 Sunny 48 9 41 5 76 76 SW 6 9 29.65 1004 10 16 0.00 0.00
8:15 am 08:15 Sunny 48 9 43 6 82 82 SSW 6 9 29.65 1004 10 16 0.00 0.00
8:35 am 08:35 Sunny 52 11 43 6 72 72 SSW 6 9 29.65 1004 10 16 0.00 0.00
8:55 am 08:55 Sunny 54 12 43 6 67 67 SSW 7 11 29.65 1004 10 16 0.00 0.00
9:15 am 09:15 Sunny 55 13 43 6 63 63 WSW 6 9 29.59 1002 10 16 0.00 0.00
9:35 am 09:35 Sunny 55 13 45 7 67 67 SW 5 7 29.59 1002 10 16 0.00 0.00
9:55 am 09:55 Sunny 57 14 45 7 63 63 WSW 5 7 29.59 1002 10 16 0.00 0.00
10:15 am 10:15 Sunny 59 15 45 7 59 59 Calm 29.62 1003 10 16 0.00 0.00
10:35 am 10:35 Sunny 61 16 45 7 55 55 S 6 9 29.56 1001 10 16 0.00 0.00
10:55 am 10:55 Sunny 63 17 46 8 56 56 Calm 29.56 1001 10 16 0.00 0.00
11:15 am 11:15 Sunny 63 17 46 8 56 56 SSE 5 7 29.56 1001 10 16 0.00 0.00
11:35 am 11:35 Sunny 64 18 46 8 52 52 Calm 29.59 1002 10 16 0.00 0.00
11:55 am 11:55 Sunny 66 19 46 8 49 49 Calm 29.59 1002 10 16 0.00 0.00
12:15 pm 12:15 Sunny 68 20 46 8 46 46 Calm 29.53 1000 10 16 0.00 0.00
12:35 pm 12:35 Sunny 72 22 46 8 41 41 ESE 5 7 29.53 1000 10 16 0.00 0.00
12:55 pm 12:55 Sunny 73 23 46 8 38 38 ESE 8 13 29.53 1000 10 16 0.00 0.00
1:15 pm 13:15 Sunny 75 24 48 9 39 39 SE 8 13 29.50 999 10 16 0.00 0.00
1:35 pm 13:35 Sunny 75 24 46 8 36 36 SE 9 15 29.50 999 10 16 0.00 0.00
1:55 pm 13:55 Sunny 75 24 46 8 36 36 SE 8 13 29.50 999 10 16 0.00 0.00
2:15 pm 14:15 Sunny 77 25 46 8 34 34 SE 10 17 29.50 999 10 16 0.00 0.00
2:35 pm 14:35 Sunny 77 25 46 8 34 34 ESE 8 13 29.47 998 10 16 0.00 0.00
2:55 pm 14:55 Sunny 77 25 46 8 34 34 SE 10 17 29.47 998 10 16 0.00 0.00
3:15 pm 15:15 Sunny 77 25 46 8 34 34 SE 10 17 29.47 998 10 16 0.00 0.00
3:35 pm 15:35 Sunny 79 26 45 7 30 30 ESE 10 17 29.47 998 10 16 0.00 0.00
3:55 pm 15:55 Sunny 79 26 46 8 32 32 SE 13 20 29.44 997 10 16 0.00 0.00
4:15 pm 16:15 Sunny 77 25 46 8 34 34 SE 13 20 29.47 998 10 16 0.00 0.00
4:35 pm 16:35 Sunny 77 25 46 8 34 34 SE 13 20 29.44 997 10 16 0.00 0.00
4:55 pm 16:55 Sunny 79 26 46 8 32 32 SE 13 20 29.44 997 10 16 0.00 0.00
5:15 pm 17:15 Sunny 79 26 46 8 32 32 SSE 13 20 29.44 997 10 16 0.00 0.00
5:35 pm 17:35 Sunny 75 24 46 8 36 36 S 16 26 29.44 997 10 16 0.00 0.00
5:55 pm 17:55 Sunny 73 23 48 9 41 41 SSE 14 22 29.44 997 10 16 0.00 0.00
6:15 pm 18:15 Sunny 73 23 48 9 41 41 SSE 14 22 29.44 997 10 16 0.00 0.00
6:35 pm 18:35 Sunny 72 22 48 9 44 44 SSE 13 20 29.47 998 10 16 0.00 0.00
6:55 pm 18:55 Sunny 70 21 48 9 46 46 SSE 10 17 29.47 998 10 16 0.00 0.00
7:15 pm 19:15 Sunny 68 20 48 9 49 49 SSE 8 13 29.47 998 10 16 0.00 0.00
7:35 pm 19:35 Sunny 66 19 48 9 52 52 SE 7 11 29.47 998 10 16 0.00 0.00
7:55 pm 19:55 Sunny 64 18 46 8 52 52 SSE 7 11 29.50 999 10 16 0.00 0.00
8:15 pm 20:15 Clear 64 18 46 8 52 52 SSE 3 6 29.50 999 10 16 0.00 0.00
8:35 pm 20:35 Clear 63 17 46 8 56 56 Calm 29.50 999 5 8 0.00 0.00
8:55 pm 20:55 Clear 63 17 46 8 56 56 SE 5 7 29.50 999 10 16 0.00 0.00
9:15 pm 21:15 Clear 59 15 46 8 63 63 SE 5 7 29.53 1000 10 16 0.00 0.00
9:35 pm 21:35 Clear 57 14 45 7 63 63 Calm 29.53 1000 10 16 0.00 0.00
9:55 pm 21:55 Clear 57 14 45 7 63 63 SE 5 7 29.53 1000 10 16 0.00 0.00
10:15 pm 22:15 Clear 55 13 45 7 67 67 SE 3 6 29.53 1000 10 16 0.00 0.00
10:35 pm 22:35 Clear 55 13 45 7 67 67 Calm 29.53 1000 10 16 0.00 0.00
10:55 pm 22:55 Clear 55 13 46 8 72 72 Calm 29.53 1000 10 16 0.00 0.00
11:15 pm 23:15 Clear 55 13 45 7 67 67 Calm 29.50 999 10 16 0.00 0.00
11:35 pm 23:35 Clear 55 13 46 8 72 72 Calm 29.50 999 10 16 0.00 0.00
11:55 pm 23:55 Clear 52 11 45 7 77 77 E 6 9 29.53 1000 10 16 0.00 0.00

Powered by AerisWeather